TimeEST,TemperatureF,Dew PointF,Humidity,Sea Level PressureIn,VisibilityMPH,Wind Direction,Wind SpeedMPH,Gust SpeedMPH,PrecipitationIn,Events,Conditions,WindDirDegrees,DateUTC
12:15 AM,53.6,50.0,88,29.96,10.0,Calm,Calm,-,0.00,,Clear,0,2013-11-03 04:15:00
12:35 AM,53.6,51.8,94,29.96,10.0,Calm,Calm,-,0.00,,Clear,0,2013-11-03 04:35:00
12:55 AM,51.8,48.2,88,29.96,10.0,Calm,Calm,-,0.00,,Clear,0,2013-11-03 04:55:00
1:15 AM,51.8,48.2,88,29.96,10.0,Calm,Calm,-,0.00,,Clear,0,2013-11-03 05:15:00
1:35 AM,53.6,48.2,82,29.96,10.0,Calm,Calm,-,0.00,,Clear,0,2013-11-03 05:35:00
1:55 AM,53.6,48.2,82,29.97,10.0,NW,5.8,-,0.00,,Clear,310,2013-11-03 05:55:00
1:15 AM,53.6,48.2,82,29.97,10.0,NNW,5.8,-,0.00,,Clear,330,2013-11-03 06:15:00
1:35 AM,53.6,48.2,82,29.98,10.0,NNW,5.8,-,0.00,,Clear,330,2013-11-03 06:35:00
1:55 AM,53.6,48.2,82,29.98,10.0,NNW,3.5,-,0.00,,Clear,330,2013-11-03 06:55:00
2:15 AM,53.6,46.4,77,29.98,10.0,NNW,6.9,-,0.00,,Clear,330,2013-11-03 07:15:00
2:35 AM,53.6,46.4,77,29.99,10.0,NNW,8.1,-,0.00,,Clear,330,2013-11-03 07:35:00
2:55 AM,53.6,46.4,77,30.00,10.0,NNW,6.9,-,0.00,,Clear,330,2013-11-03 07:55:00
3:15 AM,53.6,46.4,77,30.01,10.0,NW,6.9,-,0.00,,Clear,320,2013-11-03 08:15:00
3:35 AM,53.6,46.4,77,30.01,10.0,NW,5.8,-,0.00,,Clear,310,2013-11-03 08:35:00
3:55 AM,51.8,46.4,82,30.02,10.0,NNW,5.8,-,0.00,,Clear,330,2013-11-03 08:55:00
4:15 AM,51.8,46.4,82,30.02,10.0,NW,4.6,-,0.00,,Clear,320,2013-11-03 09:15:00
4:35 AM,51.8,44.6,76,30.03,10.0,NNW,5.8,-,0.00,,Clear,340,2013-11-03 09:35:00
4:55 AM,51.8,44.6,76,30.04,10.0,NNW,6.9,-,0.00,,Clear,330,2013-11-03 09:55:00
5:15 AM,51.8,44.6,76,30.05,10.0,NNW,6.9,-,0.00,,Clear,340,2013-11-03 10:15:00
5:35 AM,51.8,44.6,76,30.06,10.0,North,6.9,-,0.00,,Clear,350,2013-11-03 10:35:00
5:55 AM,51.8,42.8,71,30.07,10.0,North,4.6,-,0.00,,Clear,350,2013-11-03 10:55:00
6:15 AM,51.8,42.8,71,30.08,10.0,North,3.5,-,0.00,,Clear,360,2013-11-03 11:15:00
6:35 AM,51.8,42.8,71,30.09,10.0,North,4.6,-,0.00,,Clear,360,2013-11-03 11:35:00
6:55 AM,53.6,42.8,67,30.10,10.0,North,8.1,-,0.00,,Clear,10,2013-11-03 11:55:00
7:15 AM,53.6,42.8,67,30.11,10.0,NNE,6.9,-,0.00,,Clear,20,2013-11-03 12:15:00
7:35 AM,55.4,41.0,58,30.12,10.0,NNE,8.1,-,0.00,,Clear,20,2013-11-03 12:35:00
7:55 AM,57.2,41.0,55,30.14,10.0,NNE,11.5,-,0.00,,Clear,20,2013-11-03 12:55:00
8:15 AM,57.2,41.0,55,30.15,10.0,NNE,8.1,-,0.00,,Clear,20,2013-11-03 13:15:00
8:35 AM,59.0,41.0,51,30.16,10.0,NNE,8.1,-,0.00,,Clear,20,2013-11-03 13:35:00
8:55 AM,60.8,41.0,48,30.17,10.0,NNE,9.2,16.1,0.00,,Clear,30,2013-11-03 13:55:00
9:15 AM,60.8,39.2,45,30.17,10.0,NNE,15.0,19.6,0.00,,Clear,20,2013-11-03 14:15:00
9:35 AM,60.8,41.0,48,30.18,10.0,NNE,12.7,-,0.00,,Clear,20,2013-11-03 14:35:00
9:55 AM,62.6,39.2,42,30.18,10.0,North,11.5,17.3,0.00,,Clear,10,2013-11-03 14:55:00
10:15 AM,62.6,39.2,42,30.18,10.0,NNE,10.4,-,0.00,,Clear,20,2013-11-03 15:15:00
10:35 AM,64.4,39.2,40,30.18,10.0,North,12.7,-,0.00,,Clear,360,2013-11-03 15:35:00
10:55 AM,64.4,39.2,40,30.19,10.0,North,12.7,-,0.00,,Clear,10,2013-11-03 15:55:00
11:15 AM,64.4,39.2,40,30.19,10.0,NNE,11.5,-,0.00,,Clear,20,2013-11-03 16:15:00
11:35 AM,64.4,39.2,40,30.18,10.0,NNE,11.5,18.4,0.00,,Clear,30,2013-11-03 16:35:00
11:55 AM,66.2,39.2,37,30.18,10.0,NNE,12.7,18.4,0.00,,Clear,30,2013-11-03 16:55:00
12:15 PM,66.2,39.2,37,30.17,10.0,North,9.2,-,0.00,,Clear,10,2013-11-03 17:15:00
12:35 PM,66.2,39.2,37,30.17,10.0,North,11.5,-,0.00,,Clear,350,2013-11-03 17:35:00
12:55 PM,66.2,37.4,35,30.16,10.0,NNE,9.2,-,0.00,,Clear,30,2013-11-03 17:55:00
1:15 PM,66.2,35.6,32,30.16,10.0,NNE,10.4,-,0.00,,Clear,20,2013-11-03 18:15:00
1:35 PM,66.2,35.6,32,30.16,10.0,NNE,9.2,-,0.00,,Clear,30,2013-11-03 18:35:00
1:55 PM,66.2,35.6,32,30.16,10.0,North,9.2,-,0.00,,Clear,360,2013-11-03 18:55:00
2:15 PM,68.0,35.6,30,30.16,10.0,North,9.2,-,0.00,,Clear,350,2013-11-03 19:15:00
2:35 PM,68.0,37.4,33,30.16,10.0,NNE,8.1,-,0.00,,Clear,20,2013-11-03 19:35:00
2:55 PM,68.0,37.4,33,30.16,10.0,North,5.8,-,0.00,,Clear,360,2013-11-03 19:55:00
3:15 PM,68.0,37.4,33,30.16,10.0,North,9.2,-,0.00,,Clear,350,2013-11-03 20:15:00
3:35 PM,66.2,37.4,35,30.17,10.0,NNW,9.2,-,0.00,,Clear,340,2013-11-03 20:35:00
3:55 PM,66.2,37.4,35,30.17,10.0,NNW,8.1,-,0.00,,Clear,340,2013-11-03 20:55:00
4:15 PM,64.4,33.8,32,30.17,10.0,North,10.4,-,0.00,,Clear,10,2013-11-03 21:15:00
4:35 PM,64.4,35.6,34,30.18,10.0,North,8.1,-,0.00,,Clear,350,2013-11-03 21:35:00
4:55 PM,64.4,37.4,37,30.18,10.0,North,6.9,-,0.00,,Clear,360,2013-11-03 21:55:00
5:15 PM,62.6,37.4,39,30.19,10.0,North,6.9,-,0.00,,Clear,360,2013-11-03 22:15:00
5:35 PM,60.8,39.2,45,30.20,10.0,North,4.6,-,0.00,,Clear,360,2013-11-03 22:35:00
5:55 PM,59.0,41.0,51,30.21,10.0,Calm,Calm,-,0.00,,Clear,0,2013-11-03 22:55:00
6:15 PM,57.2,42.8,59,30.21,10.0,Calm,Calm,-,0.00,,Clear,0,2013-11-03 23:15:00
6:35 PM,57.2,42.8,59,30.23,10.0,Calm,Calm,-,0.00,,Clear,0,2013-11-03 23:35:00
6:55 PM,55.4,42.8,63,30.24,10.0,Calm,Calm,-,0.00,,Clear,0,2013-11-03 23:55:00
7:15 PM,53.6,44.6,72,30.24,10.0,Calm,Calm,-,0.00,,Clear,0,2013-11-04 00:15:00
7:35 PM,53.6,44.6,72,30.25,10.0,Calm,Calm,-,0.00,,Clear,0,2013-11-04 00:35:00
7:55 PM,53.6,44.6,72,30.26,10.0,Calm,Calm,-,0.00,,Clear,0,2013-11-04 00:55:00
8:15 PM,51.8,44.6,76,30.26,10.0,Calm,Calm,-,0.00,,Clear,0,2013-11-04 01:15:00
8:35 PM,55.4,42.8,63,30.27,10.0,North,3.5,-,0.00,,Clear,10,2013-11-04 01:35:00
8:55 PM,53.6,42.8,67,30.28,10.0,North,3.5,-,0.00,,Clear,360,2013-11-04 01:55:00
9:15 PM,55.4,42.8,63,30.28,10.0,NNE,4.6,-,0.00,,Clear,20,2013-11-04 02:15:00
9:35 PM,55.4,42.8,63,30.29,10.0,Calm,Calm,-,0.00,,Clear,0,2013-11-04 02:35:00
9:55 PM,50.0,42.8,76,30.29,10.0,North,4.6,-,0.00,,Clear,350,2013-11-04 02:55:00
10:15 PM,53.6,42.8,67,30.30,10.0,Calm,Calm,-,0.00,,Clear,0,2013-11-04 03:15:00
10:35 PM,53.6,42.8,67,30.30,10.0,Calm,Calm,-,0.00,,Clear,0,2013-11-04 03:35:00
10:55 PM,53.6,42.8,67,30.30,10.0,North,5.8,-,0.00,,Clear,350,2013-11-04 03:55:00